Regional Weather Roundup
Issued by NWS

Home | Current Version | Previous Version | Graphics & Text | Print | Product List | Glossary Off
Versions: 1 2 3 4 5 6 7 8 9 10 11 12 13 14 15 16 17 18 19 20 21 22 23 24 25 26 27 28 29 30 31 32 33 34 35 36 37 38 39 40 41 42 43 44 45 46 47 48 49 50

293
ASUS43 KDMX 290008
RWRIA

WEATHER ROUNDUP FOR IOWA
NATIONAL WEATHER SERVICE DES MOINES IA
700 PM CDT THU JUL 28 2016

NOTE: "FAIR" INDICATES FEW OR NO CLOUDS BELOW 12,000 FEET WITH NO
SIGNIFICANT WEATHER AND/OR OBSTRUCTIONS TO VISIBILITY.

* - THESE STATIONS ARE NOT NWS STATIONS...THUS NOT UNDER NWS
QUALITY CONTROL.  THEY ALSO DO NOT REPORT WEATHER SUCH
AS PRECIPITATION OR FOG.

IAZ001>003-012>014-020>022-031>034-043>046-290100-
   NORTHWEST IOWA

CITY           SKY/WX    TMP DP  RH WIND       PRES   REMARKS
CARROLL *      MOSUNNY   75  64  69 NE12      30.00R
CHEROKEE *     MOSUNNY   74  64  71 NE6       30.01S
DENISON *      MOSUNNY   75  63  64 NE9       29.97S
LE MARS *      PTSUNNY   77  63  61 N8        30.01S
SHELDON *      MOSUNNY   73  63  68 NE6       30.02R
SIOUX CITY     CLOUDY    80  62  54 NE10      29.98F HX  81
6HR MIN TEMP:  80; 6HR MAX TEMP:  85;

SPENCER        CLOUDY    75  62  64 NE10      30.02R
6HR MIN TEMP:  71; 6HR MAX TEMP:  78;

STORM LAKE *   MOSUNNY   73  63  68 N6G12     30.02R
$$

IAZ055>058-069>071-079>083-090>094-290100-
   SOUTHWEST IOWA

CITY           SKY/WX    TMP DP  RH WIND       PRES   REMARKS
ATLANTIC *     MOSUNNY   77  64  65 N12       29.98S
CLARINDA *       N/A     81  66  61 MISG      29.98F HX  83
COUNCIL BLFS * PTSUNNY   77  64  65 N7        29.99S
CRESTON *      CLOUDY    75  66  73 NE10      30.01R
HARLAN  *      MOSUNNY   75  61  60 N6G13     30.02S
LAMONI         SUNNY     78  66  66 N9        29.97R HX  80
6HR MIN TEMP:  78; 6HR MAX TEMP:  84;

RED OAK *      MOSUNNY   79  64  61 N8        29.97F HX  81
SHENANDOAH *   SUNNY     79  68  69 N8        29.98R HX  81
$$

IAZ047>049-059>061-072>074-084-290100-
   CENTRAL IOWA

CITY           SKY/WX    TMP DP  RH WIND       PRES   REMARKS
AMES           SUNNY     75  65  70 N13       29.97R
6HR MIN TEMP:  74; 6HR MAX TEMP:  78;

ANKENY *         N/A    N/A N/A N/A MISG        N/A
BOONE *        SUNNY     75  63  64 N13       29.98R
CHARITON *       N/A    N/A N/A N/A MISG        N/A
DES MOINES     MOSUNNY   79  62  56 N10       29.95S HX  80
6HR MIN TEMP:  77; 6HR MAX TEMP:  82;

GRINNELL*      SUNNY     75  65  69 N10       29.95R
KNOXVILLE *    SUNNY     77  64  65 NW8G14    29.95R
MARSHALLTOWN   SUNNY     76  66  71 N10       29.94S
6HR MIN TEMP:  75; 6HR MAX TEMP:  80;

NEWTON *       MOSUNNY   77  66  69 N9        29.94S
PELLA *        MOSUNNY   77  64  65 NW7       29.95R
PERRY *          N/A     75  66  73 N9        29.99R
$$

IAZ004>006-015-016-023>025-035-036-290100-
   NORTH CENTRAL IOWA

CITY           SKY/WX    TMP DP  RH WIND       PRES   REMARKS
ALGONA *       MOSUNNY   73  64  73 N8        30.00F
ESTHERVILLE    MOSUNNY   72  62  71 N10       30.02R
6HR MIN TEMP:  68; 6HR MAX TEMP:  76;

FORT DODGE *   MOSUNNY   72  64  78 N5        30.00S
MASON CITY     CLOUDY    70  64  81 NE13      30.01R
6HR MIN TEMP:  70; 6HR MAX TEMP:  76; 6HR PCP: TRACE;

FOREST CITY *  RAIN      70  63  78 N9        30.00R
IOWA FALLS *     N/A     75  64  67 N9        29.97S
$$

IAZ007>011-017>019-026>030-037>042-050>054-066-290100-
   NORTHEAST IOWA

CITY           SKY/WX    TMP DP  RH WIND       PRES   REMARKS
CEDAR RAPIDS   SUNNY     76  68  76 NW10      29.91F
6HR MIN TEMP:  76; 6HR MAX TEMP:  81;

CHARLES CITY * CLOUDY    70  66  88 N12       29.98S
CLINTON *      PTSUNNY   78  71  79 NW6       29.89S HX  80
DECORAH *      CLOUDY    64  64 100 N8G16     29.96F
DUBUQUE        SUNNY     76  68  76 N14       29.91F
6HR MIN TEMP:  75; 6HR MAX TEMP:  82;

MONTICELLO *   CLOUDY    75  68  78 N7        29.90S
OELWEIN *      MOSUNNY   72  66  83 N12       29.95S
WATERLOO       PTSUNNY   74  65  73 N13       29.94R
6HR MIN TEMP:  72; 6HR MAX TEMP:  78;

$$

IAZ064-065-067-068-078-290100-
   EAST CENTRAL IOWA

CITY           SKY/WX    TMP DP  RH WIND       PRES   REMARKS
DAVENPORT      SUNNY     79  65  62 NW7       29.90S HX  81
6HR MIN TEMP:  79; 6HR MAX TEMP:  82;

IOWA CITY      SUNNY     80  67  64 NW8       29.92R HX  82
6HR MIN TEMP:  77; 6HR MAX TEMP:  82;

MT. PLEASANT * SUNNY     82  65  57 NW6       29.91F HX  84
MUSCATINE *    SUNNY     81  66  61 NW8       29.90S HX  83
QUAD CITIES    MOSUNNY   83  66  56 NW12      29.88S HX  85
6HR MIN TEMP:  82; 6HR MAX TEMP:  86;

$$

IAZ062-063-075>077-085>089-095>099-290100-
   SOUTHEAST IOWA

CITY           SKY/WX    TMP DP  RH WIND       PRES   REMARKS
BURLINGTON     SUNNY     78  67  68 NW7       29.90F HX  80
6HR MIN TEMP:  78; 6HR MAX TEMP:  83;

FAIRFIELD *    PTSUNNY   75  66  73 NW6       29.92F
KEOKUK *       SUNNY     79  66  65 N6        29.90S HX  81
OTTUMWA        MOSUNNY   78  64  61 NW9       29.92S HX  80
6HR MIN TEMP:  76; 6HR MAX TEMP:  80;

WASHINGTON *   SUNNY     77  66  69 N12       29.93S
$$

ABBREVIATIONS USED IN REMARKS
   TC - TEMPERATURES IN CELSIUS
  WCI - WIND CHILL INDEX
   HX - HEAT INDEX
  VSB - VISIBILITY
$$





USA.gov is the U.S. government's official web portal to all federal, state and local government web resources and services.